Wetterdaten: Freitag, 26.04.2013
Datum Zeit Temperatur Luftfeuchte Luftdruck Regen Wind Richtung Richtung Taupunkt Windchill Windben
26.04.2013 00:00 8,2 C 77 % 1022,6 hPa 0,0 l/m 0,0 km/h (0 Bft) NO 45 4,4 C 7,9 C 0,0 km/h (0 Bft)
26.04.2013 00:05 8,0 C 77 % 1022,4 hPa 0,0 l/m 0,0 km/h (0 Bft) N 360 4,2 C 7,9 C 0,0 km/h (0 Bft)
26.04.2013 00:10 8,0 C 77 % 1022,4 hPa 0,0 l/m 0,0 km/h (0 Bft) W-SW 247 4,2 C 8,0 C 0,0 km/h (0 Bft)
26.04.2013 00:15 8,0 C 77 % 1022,4 hPa 0,0 l/m 0,0 km/h (0 Bft) W-NW 292 4,2 C 8,0 C 0,0 km/h (0 Bft)
26.04.2013 00:20 8,3 C 78 % 1022,4 hPa 0,0 l/m 0,0 km/h (0 Bft) N 360 4,7 C 7,9 C 0,0 km/h (0 Bft)
26.04.2013 00:25 8,0 C 77 % 1022,2 hPa 0,0 l/m 0,0 km/h (0 Bft) W-NW 292 4,2 C 7,9 C 0,0 km/h (0 Bft)
26.04.2013 00:30 7,7 C 77 % 1022,2 hPa 0,0 l/m 0,0 km/h (0 Bft) W 270 3,9 C 7,7 C 0,0 km/h (0 Bft)
26.04.2013 00:35 7,9 C 78 % 1022,2 hPa 0,0 l/m 0,0 km/h (0 Bft) N-NW 337 4,3 C 7,6 C 0,0 km/h (0 Bft)
26.04.2013 00:40 8,0 C 78 % 1022,2 hPa 0,0 l/m 0,0 km/h (0 Bft) W-NW 292 4,4 C 7,5 C 1,8 km/h (1 Bft)
26.04.2013 00:45 7,9 C 79 % 1022,0 hPa 0,0 l/m 0,0 km/h (0 Bft) N 360 4,5 C 7,4 C 0,0 km/h (0 Bft)
26.04.2013 00:50 7,4 C 78 % 1022,0 hPa 0,0 l/m 0,0 km/h (0 Bft) N 360 3,8 C 7,4 C 0,0 km/h (0 Bft)
26.04.2013 00:55 7,4 C 79 % 1022,0 hPa 0,0 l/m 0,0 km/h (0 Bft) W-NW 292 4,0 C 7,3 C 0,0 km/h (0 Bft)
26.04.2013 01:00 7,4 C 80 % 1022,0 hPa 0,0 l/m 0,0 km/h (0 Bft) N 360 4,2 C 7,0 C 0,0 km/h (0 Bft)
26.04.2013 01:05 7,3 C 80 % 1021,9 hPa 0,0 l/m 0,0 km/h (0 Bft) W-NW 292 4,1 C 6,9 C 0,0 km/h (0 Bft)
26.04.2013 01:10 7,2 C 80 % 1021,9 hPa 0,0 l/m 0,0 km/h (0 Bft) N 360 4,0 C 6,7 C 0,0 km/h (0 Bft)
26.04.2013 01:15 7,0 C 80 % 1021,9 hPa 0,0 l/m 0,0 km/h (0 Bft) NO 45 3,8 C 6,5 C 0,0 km/h (0 Bft)
26.04.2013 01:20 6,7 C 80 % 1021,9 hPa 0,0 l/m 0,0 km/h (0 Bft) NO 45 3,5 C 6,5 C 0,0 km/h (0 Bft)
26.04.2013 01:25 6,8 C 80 % 1021,6 hPa 0,0 l/m 0,0 km/h (0 Bft) W-SW 247 3,6 C 6,5 C 0,0 km/h (0 Bft)
26.04.2013 01:30 6,9 C 80 % 1021,6 hPa 0,0 l/m 0,0 km/h (0 Bft) N-NW 337 3,7 C 6,4 C 0,0 km/h (0 Bft)
26.04.2013 01:35 7,0 C 80 % 1021,6 hPa 0,0 l/m 0,0 km/h (0 Bft) W-NW 292 3,8 C 6,4 C 0,0 km/h (0 Bft)
26.04.2013 01:40 7,0 C 80 % 1021,6 hPa 0,0 l/m 0,0 km/h (0 Bft) N-NO 22 3,8 C 6,3 C 0,0 km/h (0 Bft)
26.04.2013 01:45 6,9 C 82 % 1021,6 hPa 0,0 l/m 0,0 km/h (0 Bft) SW 225 4,0 C 6,3 C 1,8 km/h (1 Bft)
26.04.2013 01:50 6,6 C 81 % 1021,6 hPa 0,0 l/m 0,0 km/h (0 Bft) N 360 3,6 C 6,2 C 0,0 km/h (0 Bft)
26.04.2013 01:55 6,4 C 81 % 1021,6 hPa 0,0 l/m 0,0 km/h (0 Bft) N 360 3,4 C 6,1 C 0,0 km/h (0 Bft)
26.04.2013 02:00 6,0 C 81 % 1021,6 hPa 0,0 l/m 0,0 km/h (0 Bft) O 90 3,0 C 5,8 C 0,0 km/h (0 Bft)
26.04.2013 02:05 6,1 C 81 % 1021,5 hPa 0,0 l/m 0,0 km/h (0 Bft) N 360 3,1 C 5,7 C 0,0 km/h (0 Bft)
26.04.2013 02:10 6,0 C 82 % 1021,5 hPa 0,0 l/m 0,0 km/h (0 Bft) O 90 3,2 C 5,5 C 0,0 km/h (0 Bft)
26.04.2013 02:15 6,5 C 83 % 1021,5 hPa 0,0 l/m 0,6 km/h (0 Bft) O 90 3,8 C 5,6 C 4,3 km/h (1 Bft)
26.04.2013 02:20 7,2 C 82 % 1021,5 hPa 0,0 l/m 1,3 km/h (1 Bft) O-NO 67 4,3 C 6,1 C 2,1 km/h (1 Bft)
26.04.2013 02:25 7,5 C 82 % 1021,4 hPa 0,0 l/m 1,4 km/h (1 Bft) SO 135 4,6 C 6,5 C 2,1 km/h (1 Bft)
26.04.2013 02:30 7,7 C 81 % 1021,4 hPa 0,0 l/m 1,4 km/h (1 Bft) O 90 4,7 C 7,0 C 0,0 km/h (0 Bft)
26.04.2013 02:35 7,6 C 80 % 1021,4 hPa 0,0 l/m 1,1 km/h (1 Bft) O-SO 112 4,4 C 7,1 C 2,1 km/h (1 Bft)
26.04.2013 02:40 8,0 C 79 % 1021,4 hPa 0,0 l/m 0,3 km/h (0 Bft) O-SO 112 4,6 C 7,4 C 0,0 km/h (0 Bft)
26.04.2013 02:45 8,0 C 78 % 1020,9 hPa 0,0 l/m 0,3 km/h (0 Bft) N-NO 22 4,4 C 7,3 C 0,0 km/h (0 Bft)
26.04.2013 02:50 7,5 C 78 % 1020,9 hPa 0,0 l/m 0,0 km/h (0 Bft) W 270 3,9 C 7,1 C 0,0 km/h (0 Bft)
26.04.2013 02:55 7,0 C 78 % 1020,9 hPa 0,0 l/m 0,0 km/h (0 Bft) W-NW 292 3,4 C 7,0 C 0,0 km/h (0 Bft)
26.04.2013 03:00 6,8 C 79 % 1020,9 hPa 0,0 l/m 0,0 km/h (0 Bft) NO 45 3,4 C 6,8 C 0,0 km/h (0 Bft)
26.04.2013 03:05 6,7 C 79 % 1021,0 hPa 0,0 l/m 0,0 km/h (0 Bft) S 180 3,3 C 6,7 C 0,0 km/h (0 Bft)
26.04.2013 03:10 6,8 C 79 % 1021,0 hPa 0,0 l/m 0,5 km/h (0 Bft) N 360 3,4 C 6,7 C 0,0 km/h (0 Bft)
26.04.2013 03:15 6,5 C 79 % 1021,0 hPa 0,0 l/m 0,5 km/h (0 Bft) NO 45 3,1 C 6,5 C 0,0 km/h (0 Bft)
26.04.2013 03:20 6,3 C 79 % 1021,0 hPa 0,0 l/m 0,0 km/h (0 Bft) S 180 2,9 C 6,3 C 0,0 km/h (0 Bft)
26.04.2013 03:25 6,3 C 79 % 1020,6 hPa 0,0 l/m 0,2 km/h (0 Bft) O 90 2,9 C 6,2 C 0,0 km/h (0 Bft)
26.04.2013 03:30 6,1 C 79 % 1020,6 hPa 0,0 l/m 0,3 km/h (0 Bft) NO 45 2,7 C 6,0 C 3,7 km/h (1 Bft)
26.04.2013 03:35 6,1 C 80 % 1020,6 hPa 0,0 l/m 0,3 km/h (0 Bft) W 270 2,9 C 6,0 C 0,0 km/h (0 Bft)
26.04.2013 03:40 6,0 C 79 % 1020,6 hPa 0,0 l/m 0,3 km/h (0 Bft) W-SW 247 2,6 C 5,9 C 0,0 km/h (0 Bft)
26.04.2013 03:45 6,0 C 80 % 1020,6 hPa 0,0 l/m 0,3 km/h (0 Bft) O-SO 112 2,8 C 6,0 C 0,0 km/h (0 Bft)
26.04.2013 03:50 6,1 C 80 % 1020,6 hPa 0,0 l/m 0,3 km/h (0 Bft) W-NW 292 2,9 C 6,0 C 4,8 km/h (1 Bft)
26.04.2013 03:55 5,9 C 81 % 1020,6 hPa 0,0 l/m 0,0 km/h (0 Bft) W 270 2,9 C 5,9 C 0,0 km/h (0 Bft)
26.04.2013 04:00 6,1 C 80 % 1020,6 hPa 0,0 l/m 0,0 km/h (0 Bft) NO 45 2,9 C 5,9 C 1,9 km/h (1 Bft)
26.04.2013 04:05 6,0 C 80 % 1020,4 hPa 0,0 l/m 0,0 km/h (0 Bft) W-NW 292 2,8 C 5,9 C 0,0 km/h (0 Bft)
26.04.2013 04:10 6,0 C 80 % 1020,4 hPa 0,0 l/m 0,0 km/h (0 Bft) O 90 2,8 C 5,9 C 0,0 km/h (0 Bft)
26.04.2013 04:15 6,0 C 80 % 1020,4 hPa 0,0 l/m 0,2 km/h (0 Bft) W-SW 247 2,8 C 5,9 C 1,6 km/h (1 Bft)
26.04.2013 04:20 6,2 C 80 % 1020,4 hPa 0,0 l/m 0,3 km/h (0 Bft) W 270 3,0 C 6,1 C 0,0 km/h (0 Bft)
26.04.2013 04:25 6,0 C 80 % 1020,1 hPa 0,0 l/m 0,3 km/h (0 Bft) N-NW 337 2,8 C 5,9 C 0,0 km/h (0 Bft)
26.04.2013 04:30 6,1 C 80 % 1020,1 hPa 0,0 l/m 0,0 km/h (0 Bft) NO 45 2,9 C 5,8 C 0,0 km/h (0 Bft)
26.04.2013 04:35 6,1 C 80 % 1020,1 hPa 0,0 l/m 0,0 km/h (0 Bft) W 270 2,9 C 5,7 C 0,0 km/h (0 Bft)
26.04.2013 04:40 5,9 C 80 % 1020,1 hPa 0,0 l/m 0,2 km/h (0 Bft) NO 45 2,7 C 5,6 C 0,0 km/h (0 Bft)
26.04.2013 04:45 5,7 C 80 % 1020,0 hPa 0,0 l/m 0,2 km/h (0 Bft) W 270 2,5 C 5,6 C 0,0 km/h (0 Bft)
26.04.2013 04:50 5,9 C 80 % 1020,0 hPa 0,0 l/m 0,2 km/h (0 Bft) W 270 2,7 C 5,5 C 2,1 km/h (1 Bft)
26.04.2013 04:55 6,0 C 80 % 1020,0 hPa 0,0 l/m 0,2 km/h (0 Bft) N-NW 337 2,8 C 5,6 C 0,0 km/h (0 Bft)
26.04.2013 05:00 6,2 C 80 % 1020,0 hPa 0,0 l/m 0,3 km/h (0 Bft) W-SW 247 3,0 C 5,7 C 0,0 km/h (0 Bft)
26.04.2013 05:05 6,1 C 79 % 1019,8 hPa 0,0 l/m 0,2 km/h (0 Bft) W 270 2,7 C 5,7 C 0,0 km/h (0 Bft)
26.04.2013 05:10 6,0 C 78 % 1019,8 hPa 0,0 l/m 0,0 km/h (0 Bft) O 90 2,5 C 5,6 C 0,0 km/h (0 Bft)
26.04.2013 05:15 6,0 C 78 % 1019,8 hPa 0,0 l/m 0,0 km/h (0 Bft) W-SW 247 2,5 C 5,6 C 0,0 km/h (0 Bft)
26.04.2013 05:20 6,3 C 78 % 1019,8 hPa 0,0 l/m 0,2 km/h (0 Bft) N-NO 22 2,8 C 5,8 C 0,0 km/h (0 Bft)
26.04.2013 05:25 6,4 C 78 % 1019,8 hPa 0,0 l/m 0,2 km/h (0 Bft) O 90 2,8 C 6,1 C 0,0 km/h (0 Bft)
26.04.2013 05:30 6,6 C 78 % 1019,8 hPa 0,0 l/m 0,2 km/h (0 Bft) O 90 3,0 C 6,4 C 0,0 km/h (0 Bft)
26.04.2013 05:35 6,7 C 77 % 1019,8 hPa 0,0 l/m 0,3 km/h (0 Bft) NO 45 3,0 C 6,8 C 0,0 km/h (0 Bft)
26.04.2013 05:40 7,0 C 77 % 1019,8 hPa 0,0 l/m 0,3 km/h (0 Bft) S-SW 202 3,2 C 7,3 C 0,0 km/h (0 Bft)
26.04.2013 05:45 7,0 C 76 % 1019,6 hPa 0,0 l/m 0,3 km/h (0 Bft) W-SW 247 3,1 C 7,4 C 0,0 km/h (0 Bft)
26.04.2013 05:50 6,7 C 76 % 1019,6 hPa 0,0 l/m 0,2 km/h (0 Bft) W-NW 292 2,8 C 7,1 C 0,0 km/h (0 Bft)
26.04.2013 05:55 6,5 C 76 % 1019,6 hPa 0,0 l/m 0,2 km/h (0 Bft) S-SW 202 2,6 C 7,0 C 0,0 km/h (0 Bft)
26.04.2013 06:00 6,7 C 76 % 1019,6 hPa 0,0 l/m 0,2 km/h (0 Bft) W 270 2,8 C 6,9 C 0,0 km/h (0 Bft)
26.04.2013 06:05 6,8 C 76 % 1019,4 hPa 0,0 l/m 0,2 km/h (0 Bft) S-SW 202 2,9 C 6,9 C 2,6 km/h (1 Bft)
26.04.2013 06:10 7,0 C 75 % 1019,4 hPa 0,0 l/m 0,3 km/h (0 Bft) W-NW 292 2,9 C 7,4 C 0,0 km/h (0 Bft)
26.04.2013 06:15 7,0 C 75 % 1019,4 hPa 0,0 l/m 0,3 km/h (0 Bft) S-SW 202 2,9 C 7,6 C 0,0 km/h (0 Bft)
26.04.2013 06:20 7,1 C 75 % 1019,4 hPa 0,0 l/m 0,3 km/h (0 Bft) S 180 3,0 C 7,7 C 2,3 km/h (1 Bft)
26.04.2013 06:25 7,5 C 74 % 1019,4 hPa 0,0 l/m 0,5 km/h (0 Bft) W 270 3,2 C 7,9 C 0,0 km/h (0 Bft)
26.04.2013 06:30 8,1 C 74 % 1019,4 hPa 0,0 l/m 0,5 km/h (0 Bft) O-SO 112 3,8 C 8,4 C 1,8 km/h (1 Bft)
26.04.2013 06:35 8,5 C 73 % 1019,4 hPa 0,0 l/m 0,6 km/h (0 Bft) W-SW 247 3,9 C 8,9 C 0,0 km/h (0 Bft)
26.04.2013 06:40 8,9 C 73 % 1019,4 hPa 0,0 l/m 1,0 km/h (0 Bft) O 90 4,3 C 9,5 C 2,9 km/h (1 Bft)
26.04.2013 06:45 9,3 C 72 % 1019,6 hPa 0,0 l/m 0,6 km/h (0 Bft) W-SW 247 4,5 C 9,9 C 4,8 km/h (1 Bft)
26.04.2013 06:50 9,3 C 71 % 1019,6 hPa 0,0 l/m 1,0 km/h (0 Bft) O 90 4,3 C 10,1 C 2,7 km/h (1 Bft)
26.04.2013 06:55 9,6 C 71 % 1019,6 hPa 0,0 l/m 0,8 km/h (0 Bft) N-NO 22 4,6 C 10,3 C 0,0 km/h (0 Bft)
26.04.2013 07:00 9,9 C 70 % 1019,6 hPa 0,0 l/m 0,6 km/h (0 Bft) W-SW 247 4,7 C 10,5 C 2,7 km/h (1 Bft)
26.04.2013 07:05 10,1 C 69 % 1019,8 hPa 0,0 l/m 1,0 km/h (0 Bft) S 180 4,7 C 10,9 C 0,0 km/h (0 Bft)
26.04.2013 07:10 10,3 C 68 % 1019,8 hPa 0,0 l/m 0,8 km/h (0 Bft) W-SW 247 4,7 C 11,3 C 4,2 km/h (1 Bft)
26.04.2013 07:15 10,4 C 68 % 1019,8 hPa 0,0 l/m 0,3 km/h (0 Bft) W 270 4,8 C 11,5 C 0,0 km/h (0 Bft)
26.04.2013 07:20 10,6 C 68 % 1019,8 hPa 0,0 l/m 0,5 km/h (0 Bft) W-SW 247 4,9 C 11,5 C 0,0 km/h (0 Bft)
26.04.2013 07:25 10,9 C 68 % 1019,7 hPa 0,0 l/m 0,2 km/h (0 Bft) O 90 5,2 C 11,6 C 0,0 km/h (0 Bft)
26.04.2013 07:30 11,2 C 66 % 1019,7 hPa 0,0 l/m 0,3 km/h (0 Bft) NW 315 5,1 C 11,8 C 1,8 km/h (1 Bft)
26.04.2013 07:35 11,4 C 66 % 1019,7 hPa 0,0 l/m 0,5 km/h (0 Bft) W-NW 292 5,3 C 12,0 C 1,9 km/h (1 Bft)
26.04.2013 07:40 11,6 C 64 % 1019,7 hPa 0,0 l/m 0,6 km/h (0 Bft) W-SW 247 5,0 C 12,2 C 0,0 km/h (0 Bft)
26.04.2013 07:45 11,8 C 65 % 1019,7 hPa 0,0 l/m 0,5 km/h (0 Bft) W-NW 292 5,4 C 12,3 C 0,0 km/h (0 Bft)
26.04.2013 07:50 12,0 C 64 % 1019,7 hPa 0,0 l/m 0,3 km/h (0 Bft) W 270 5,4 C 12,6 C 2,6 km/h (1 Bft)
26.04.2013 07:55 12,2 C 65 % 1019,7 hPa 0,0 l/m 0,6 km/h (0 Bft) W-SW 247 5,8 C 12,7 C 0,0 km/h (0 Bft)
26.04.2013 08:00 12,3 C 64 % 1019,7 hPa 0,0 l/m 1,0 km/h (0 Bft) S-SW 202 5,7 C 13,0 C 1,8 km/h (1 Bft)
26.04.2013 08:05 12,4 C 65 % 1019,7 hPa 0,0 l/m 0,6 km/h (0 Bft) W 270 6,0 C 13,1 C 0,0 km/h (0 Bft)
26.04.2013 08:10 12,6 C 65 % 1019,7 hPa 0,0 l/m 0,2 km/h (0 Bft) S 180 6,2 C 13,1 C 0,0 km/h (0 Bft)
26.04.2013 08:15 12,6 C 66 % 1019,7 hPa 0,0 l/m 0,2 km/h (0 Bft) S-SW 202 6,4 C 13,2 C 1,6 km/h (1 Bft)
26.04.2013 08:20 12,5 C 66 % 1019,7 hPa 0,0 l/m 0,2 km/h (0 Bft) W-SW 247 6,3 C 13,3 C 0,0 km/h (0 Bft)
26.04.2013 08:25 12,7 C 66 % 1019,6 hPa 0,0 l/m 0,0 km/h (0 Bft) W-NW 292 6,5 C 13,4 C 0,0 km/h (0 Bft)
26.04.2013 08:30 12,9 C 66 % 1019,6 hPa 0,0 l/m 0,0 km/h (0 Bft) W 270 6,7 C 13,7 C 0,0 km/h (0 Bft)
26.04.2013 08:35 13,1 C 65 % 1019,6 hPa 0,0 l/m 0,0 km/h (0 Bft) NO 45 6,7 C 13,8 C 0,0 km/h (0 Bft)
26.04.2013 08:40 13,4 C 61 % 1019,6 hPa 0,0 l/m 0,3 km/h (0 Bft) W 270 6,0 C 14,2 C 3,1 km/h (1 Bft)
26.04.2013 08:45 13,8 C 61 % 1019,4 hPa 0,0 l/m 0,5 km/h (0 Bft) W-NW 292 6,4 C 14,5 C 2,4 km/h (1 Bft)
26.04.2013 08:50 14,2 C 60 % 1019,4 hPa 0,0 l/m 0,5 km/h (0 Bft) W-NW 292 6,5 C 15,0 C 1,6 km/h (1 Bft)
26.04.2013 08:55 14,5 C 57 % 1019,4 hPa 0,0 l/m 0,3 km/h (0 Bft) N-NO 22 6,1 C 15,4 C 1,9 km/h (1 Bft)
26.04.2013 09:00 15,1 C 59 % 1019,4 hPa 0,0 l/m 0,6 km/h (0 Bft) W-SW 247 7,1 C 15,9 C 3,1 km/h (1 Bft)
26.04.2013 09:05 15,5 C 58 % 1019,1 hPa 0,0 l/m 1,1 km/h (1 Bft) N-NW 337 7,3 C 16,3 C 0,0 km/h (0 Bft)
26.04.2013 09:10 15,8 C 58 % 1019,1 hPa 0,0 l/m 1,0 km/h (0 Bft) O-SO 112 7,6 C 16,9 C 0,0 km/h (0 Bft)
26.04.2013 09:15 15,9 C 57 % 1019,1 hPa 0,0 l/m 0,5 km/h (0 Bft) O 90 7,4 C 17,3 C 0,0 km/h (0 Bft)
26.04.2013 09:20 16,2 C 55 % 1019,1 hPa 0,0 l/m 0,5 km/h (0 Bft) SO 135 7,2 C 17,8 C 0,0 km/h (0 Bft)
26.04.2013 09:25 16,2 C 56 % 1019,0 hPa 0,0 l/m 0,5 km/h (0 Bft) N 360 7,4 C 18,0 C 0,0 km/h (0 Bft)
26.04.2013 09:30 16,3 C 56 % 1019,0 hPa 0,0 l/m 0,6 km/h (0 Bft) O-NO 67 7,5 C 18,2 C 3,1 km/h (1 Bft)
26.04.2013 09:35 16,4 C 56 % 1019,0 hPa 0,0 l/m 0,8 km/h (0 Bft) N-NO 22 7,6 C 18,3 C 0,0 km/h (0 Bft)
26.04.2013 09:40 16,7 C 51 % 1019,0 hPa 0,0 l/m 0,6 km/h (0 Bft) N 360 6,5 C 18,5 C 0,0 km/h (0 Bft)
26.04.2013 09:45 17,0 C 53 % 1018,4 hPa 0,0 l/m 0,3 km/h (0 Bft) O 90 7,4 C 18,8 C 0,0 km/h (0 Bft)
26.04.2013 09:50 17,9 C 54 % 1018,4 hPa 0,0 l/m 0,0 km/h (0 Bft) W-SW 247 8,5 C 19,5 C 0,0 km/h (0 Bft)
26.04.2013 09:55 18,4 C 54 % 1018,4 hPa 0,0 l/m 0,2 km/h (0 Bft) W-SW 247 8,9 C 20,1 C 1,8 km/h (1 Bft)
26.04.2013 10:00 19,6 C 52 % 1018,4 hPa 0,0 l/m 0,3 km/h (0 Bft) O 90 9,5 C 20,8 C 0,0 km/h (0 Bft)
26.04.2013 10:05 20,6 C 50 % 1018,8 hPa 0,0 l/m 0,3 km/h (0 Bft) N-NW 337 9,8 C 21,7 C 0,0 km/h (0 Bft)
26.04.2013 10:10 22,6 C 45 % 1018,8 hPa 0,0 l/m 1,4 km/h (1 Bft) S 180 10,1 C 23,1 C 5,1 km/h (1 Bft)
26.04.2013 10:15 23,2 C 42 % 1018,8 hPa 0,0 l/m 1,8 km/h (1 Bft) S-SW 202 9,6 C 24,1 C 2,7 km/h (1 Bft)
26.04.2013 10:20 23,3 C 39 % 1018,8 hPa 0,0 l/m 1,9 km/h (1 Bft) W 270 8,6 C 24,9 C 4,0 km/h (1 Bft)
26.04.2013 10:25 23,0 C 38 % 1018,8 hPa 0,0 l/m 2,4 km/h (1 Bft) S 180 7,9 C 24,9 C 1,8 km/h (1 Bft)
26.04.2013 10:30 23,1 C 37 % 1018,8 hPa 0,0 l/m 3,1 km/h (1 Bft) W-SW 247 7,6 C 25,1 C 2,7 km/h (1 Bft)
26.04.2013 10:35 23,3 C 38 % 1018,8 hPa 0,0 l/m 2,6 km/h (1 Bft) SW 225 8,2 C 24,8 C 1,6 km/h (1 Bft)
26.04.2013 10:40 24,4 C 35 % 1018,8 hPa 0,0 l/m 1,9 km/h (1 Bft) W-SW 247 7,9 C 25,5 C 3,2 km/h (1 Bft)
26.04.2013 10:45 24,1 C 33 % 1018,9 hPa 0,0 l/m 1,4 km/h (1 Bft) N-NW 337 6,8 C 26,1 C 2,7 km/h (1 Bft)
26.04.2013 10:50 24,4 C 31 % 1018,9 hPa 0,0 l/m 1,4 km/h (1 Bft) W-SW 247 6,2 C 26,8 C 3,2 km/h (1 Bft)
26.04.2013 10:55 24,6 C 30 % 1018,9 hPa 0,0 l/m 2,1 km/h (1 Bft) W-SW 247 5,9 C 26,7 C 2,3 km/h (1 Bft)
26.04.2013 11:00 24,2 C 30 % 1018,9 hPa 0,0 l/m 2,6 km/h (1 Bft) W 270 5,5 C 26,7 C 5,6 km/h (1 Bft)
26.04.2013 11:05 24,9 C 30 % 1018,6 hPa 0,0 l/m 2,3 km/h (1 Bft) O 90 6,1 C 26,9 C 4,3 km/h (1 Bft)
26.04.2013 11:10 25,0 C 29 % 1018,6 hPa 0,0 l/m 2,6 km/h (1 Bft) W-SW 247 5,7 C 26,9 C 7,6 km/h (2 Bft)
26.04.2013 11:15 25,0 C 29 % 1018,6 hPa 0,0 l/m 3,5 km/h (1 Bft) W-SW 247 5,7 C 26,5 C 6,1 km/h (2 Bft)
26.04.2013 11:20 25,7 C 30 % 1018,6 hPa 0,0 l/m 3,9 km/h (1 Bft) O-SO 112 6,8 C 25,8 C 0,0 km/h (0 Bft)
26.04.2013 11:25 25,6 C 30 % 1018,4 hPa 0,0 l/m 3,2 km/h (1 Bft) S 180 6,7 C 25,6 C 4,5 km/h (1 Bft)
26.04.2013 11:30 26,0 C 28 % 1018,4 hPa 0,0 l/m 2,6 km/h (1 Bft) W-NW 292 6,1 C 24,8 C 1,8 km/h (1 Bft)
26.04.2013 11:35 26,1 C 29 % 1018,4 hPa 0,0 l/m 2,3 km/h (1 Bft) W-NW 292 6,7 C 24,6 C 2,1 km/h (1 Bft)
26.04.2013 11:40 26,0 C 29 % 1018,4 hPa 0,0 l/m 2,4 km/h (1 Bft) W-SW 247 6,6 C 24,6 C 7,7 km/h (2 Bft)
26.04.2013 11:45 25,5 C 29 % 1017,9 hPa 0,0 l/m 3,7 km/h (1 Bft) S 180 6,1 C 24,4 C 7,2 km/h (2 Bft)
26.04.2013 11:50 25,6 C 30 % 1017,9 hPa 0,0 l/m 4,2 km/h (1 Bft) W-SW 247 6,7 C 24,6 C 3,9 km/h (1 Bft)
26.04.2013 11:55 25,6 C 29 % 1017,9 hPa 0,0 l/m 3,2 km/h (1 Bft) N 360 6,2 C 25,3 C 3,4 km/h (1 Bft)
26.04.2013 12:00 25,0 C 27 % 1017,9 hPa 0,0 l/m 3,4 km/h (1 Bft) W-NW 292 4,7 C 25,7 C 2,9 km/h (1 Bft)
26.04.2013 12:05 23,7 C 28 % 1018,0 hPa 0,0 l/m 3,7 km/h (1 Bft) N 360 4,1 C 25,8 C 2,6 km/h (1 Bft)
26.04.2013 12:10 24,2 C 28 % 1018,0 hPa 0,0 l/m 4,2 km/h (1 Bft) W 270 4,5 C 25,7 C 2,9 km/h (1 Bft)
26.04.2013 12:15 24,6 C 29 % 1018,0 hPa 0,0 l/m 3,9 km/h (1 Bft) N-NW 337 5,4 C 25,8 C 2,1 km/h (1 Bft)
26.04.2013 12:20 24,9 C 30 % 1018,0 hPa 0,0 l/m 3,1 km/h (1 Bft) W 270 6,1 C 26,0 C 0,0 km/h (0 Bft)
26.04.2013 12:25 25,3 C 28 % 1016,8 hPa 0,0 l/m 2,3 km/h (1 Bft) O 90 5,5 C 26,6 C 3,2 km/h (1 Bft)
26.04.2013 12:30 24,6 C 26 % 1016,8 hPa 0,0 l/m 2,3 km/h (1 Bft) N-NO 22 3,8 C 27,4 C 4,3 km/h (1 Bft)
26.04.2013 12:35 25,2 C 28 % 1016,8 hPa 0,0 l/m 2,9 km/h (1 Bft) O-NO 67 5,4 C 27,3 C 4,8 km/h (1 Bft)
26.04.2013 12:40 24,2 C 28 % 1016,8 hPa 0,0 l/m 2,7 km/h (1 Bft) N 360 4,5 C 27,8 C 12,6 km/h (3 Bft)
26.04.2013 12:45 24,1 C 29 % 1017,2 hPa 0,0 l/m 2,4 km/h (1 Bft) N-NW 337 4,9 C 27,9 C 6,8 km/h (2 Bft)
26.04.2013 12:50 24,0 C 30 % 1017,2 hPa 0,0 l/m 2,7 km/h (1 Bft) W-SW 247 5,3 C 27,3 C 4,2 km/h (1 Bft)
26.04.2013 12:55 23,9 C 30 % 1017,2 hPa 0,0 l/m 2,9 km/h (1 Bft) W 270 5,3 C 26,7 C 5,1 km/h (1 Bft)
26.04.2013 13:00 24,8 C 30 % 1017,2 hPa 0,0 l/m 3,1 km/h (1 Bft) W-SW 247 6,0 C 26,7 C 2,9 km/h (1 Bft)
26.04.2013 13:05 24,0 C 30 % 1017,0 hPa 0,0 l/m 4,2 km/h (1 Bft) W 270 5,3 C 27,0 C 6,0 km/h (2 Bft)
26.04.2013 13:10 24,8 C 30 % 1017,0 hPa 0,0 l/m 5,0 km/h (1 Bft) W-NW 292 6,0 C 26,5 C 5,5 km/h (1 Bft)
26.04.2013 13:15 24,7 C 30 % 1017,0 hPa 0,0 l/m 5,3 km/h (1 Bft) W 270 6,0 C 26,4 C 9,2 km/h (2 Bft)
26.04.2013 13:20 25,4 C 30 % 1017,0 hPa 0,0 l/m 5,8 km/h (2 Bft) W-NW 292 6,6 C 26,5 C 3,9 km/h (1 Bft)
26.04.2013 13:25 25,1 C 30 % 1016,8 hPa 0,0 l/m 6,0 km/h (2 Bft) NW 315 6,3 C 26,8 C 12,9 km/h (3 Bft)
26.04.2013 13:30 24,5 C 30 % 1016,8 hPa 0,0 l/m 6,1 km/h (2 Bft) W-NW 292 5,8 C 26,5 C 6,9 km/h (2 Bft)
26.04.2013 13:35 24,7 C 30 % 1016,8 hPa 0,0 l/m 6,3 km/h (2 Bft) W 270 6,0 C 26,4 C 3,5 km/h (1 Bft)
26.04.2013 13:40 24,6 C 30 % 1016,8 hPa 0,0 l/m 5,6 km/h (1 Bft) N-NW 337 5,9 C 26,8 C 5,3 km/h (1 Bft)
26.04.2013 13:45 25,0 C 30 % 1016,5 hPa 0,0 l/m 5,3 km/h (1 Bft) NO 45 6,2 C 26,8 C 5,1 km/h (1 Bft)
26.04.2013 13:50 24,6 C 30 % 1016,5 hPa 0,0 l/m 5,0 km/h (1 Bft) NW 315 5,9 C 27,3 C 8,0 km/h (2 Bft)
26.04.2013 13:55 24,8 C 30 % 1016,5 hPa 0,0 l/m 5,1 km/h (1 Bft) W-NW 292 6,0 C 27,1 C 7,4 km/h (2 Bft)
26.04.2013 14:00 24,8 C 30 % 1016,5 hPa 0,0 l/m 5,1 km/h (1 Bft) W-NW 292 6,0 C 27,1 C 4,3 km/h (1 Bft)
26.04.2013 14:05 24,8 C 30 % 1016,2 hPa 0,0 l/m 5,5 km/h (1 Bft) NW 315 6,0 C 27,2 C 9,3 km/h (2 Bft)
26.04.2013 14:10 24,9 C 30 % 1016,2 hPa 0,0 l/m 5,1 km/h (1 Bft) W 270 6,1 C 27,2 C 8,4 km/h (2 Bft)
26.04.2013 14:15 24,7 C 30 % 1016,2 hPa 0,0 l/m 5,1 km/h (1 Bft) W-NW 292 6,0 C 27,1 C 7,2 km/h (2 Bft)
26.04.2013 14:20 24,5 C 31 % 1016,2 hPa 0,0 l/m 3,7 km/h (1 Bft) W-SW 247 6,3 C 27,1 C 2,6 km/h (1 Bft)
26.04.2013 14:25 24,2 C 31 % 1016,1 hPa 0,0 l/m 2,9 km/h (1 Bft) W-NW 292 6,0 C 26,7 C 3,7 km/h (1 Bft)
26.04.2013 14:30 23,6 C 31 % 1016,1 hPa 0,0 l/m 2,9 km/h (1 Bft) S-SW 202 5,5 C 25,8 C 0,0 km/h (0 Bft)
26.04.2013 14:35 23,8 C 32 % 1016,1 hPa 0,0 l/m 2,7 km/h (1 Bft) S-SW 202 6,1 C 25,6 C 0,0 km/h (0 Bft)
26.04.2013 14:40 24,4 C 32 % 1016,1 hPa 0,0 l/m 1,9 km/h (1 Bft) W-NW 292 6,6 C 25,7 C 3,2 km/h (1 Bft)
26.04.2013 14:45 24,4 C 32 % 1015,2 hPa 0,0 l/m 2,4 km/h (1 Bft) S-SW 202 6,6 C 26,0 C 4,5 km/h (1 Bft)
26.04.2013 14:50 23,6 C 32 % 1015,2 hPa 0,0 l/m 3,2 km/h (1 Bft) N-NO 22 5,9 C 25,9 C 5,6 km/h (1 Bft)
26.04.2013 14:55 23,7 C 32 % 1015,2 hPa 0,0 l/m 2,9 km/h (1 Bft) NO 45 6,0 C 25,8 C 1,8 km/h (1 Bft)
26.04.2013 15:00 23,3 C 33 % 1015,2 hPa 0,0 l/m 2,1 km/h (1 Bft) N-NW 337 6,1 C 25,9 C 3,4 km/h (1 Bft)
26.04.2013 15:05 23,1 C 33 % 1015,6 hPa 0,0 l/m 2,3 km/h (1 Bft) N 360 5,9 C 25,4 C 2,1 km/h (1 Bft)
26.04.2013 15:10 23,1 C 32 % 1015,6 hPa 0,0 l/m 2,6 km/h (1 Bft) S-SO 157 5,5 C 25,6 C 1,8 km/h (1 Bft)
26.04.2013 15:15 23,3 C 33 % 1015,6 hPa 0,0 l/m 1,6 km/h (1 Bft) N-NW 337 6,1 C 25,9 C 1,6 km/h (1 Bft)
26.04.2013 15:20 24,5 C 30 % 1015,6 hPa 0,0 l/m 2,6 km/h (1 Bft) N 360 5,8 C 27,3 C 11,7 km/h (2 Bft)
26.04.2013 15:25 24,6 C 31 % 1014,4 hPa 0,0 l/m 3,4 km/h (1 Bft) W-NW 292 6,3 C 28,0 C 1,6 km/h (1 Bft)
26.04.2013 15:30 25,0 C 31 % 1014,4 hPa 0,0 l/m 4,3 km/h (1 Bft) S-SO 157 6,7 C 28,8 C 6,3 km/h (2 Bft)
26.04.2013 15:35 24,8 C 30 % 1014,4 hPa 0,0 l/m 3,9 km/h (1 Bft) O-SO 112 6,0 C 28,3 C 4,8 km/h (1 Bft)
26.04.2013 15:40 24,3 C 31 % 1014,4 hPa 0,0 l/m 4,2 km/h (1 Bft) S-SO 157 6,1 C 27,7 C 3,9 km/h (1 Bft)
26.04.2013 15:45 23,8 C 32 % 1014,2 hPa 0,0 l/m 3,7 km/h (1 Bft) W 270 6,1 C 26,7 C 0,0 km/h (0 Bft)
26.04.2013 15:50 23,3 C 33 % 1014,2 hPa 0,0 l/m 3,1 km/h (1 Bft) NW 315 6,1 C 25,7 C 5,6 km/h (1 Bft)
26.04.2013 15:55 23,1 C 34 % 1014,2 hPa 0,0 l/m 3,4 km/h (1 Bft) S 180 6,4 C 25,0 C 2,3 km/h (1 Bft)
26.04.2013 16:00 24,7 C 34 % 1014,2 hPa 0,0 l/m 2,9 km/h (1 Bft) S 180 7,8 C 25,7 C 2,3 km/h (1 Bft)
26.04.2013 16:05 25,3 C 35 % 1013,8 hPa 0,0 l/m 1,9 km/h (1 Bft) W-NW 292 8,7 C 27,1 C 4,0 km/h (1 Bft)
26.04.2013 16:10 25,0 C 31 % 1013,8 hPa 0,0 l/m 3,4 km/h (1 Bft) W-SW 247 6,7 C 28,4 C 6,0 km/h (2 Bft)
26.04.2013 16:15 25,3 C 32 % 1013,8 hPa 0,0 l/m 3,5 km/h (1 Bft) W-SW 247 7,4 C 28,8 C 4,0 km/h (1 Bft)
26.04.2013 16:20 24,5 C 31 % 1013,8 hPa 0,0 l/m 3,2 km/h (1 Bft) W-NW 292 6,3 C 29,1 C 5,3 km/h (1 Bft)
26.04.2013 16:25 24,7 C 32 % 1013,7 hPa 0,0 l/m 3,2 km/h (1 Bft) N-NO 22 6,9 C 29,1 C 2,3 km/h (1 Bft)
26.04.2013 16:30 23,6 C 33 % 1013,7 hPa 0,0 l/m 2,3 km/h (1 Bft) N 360 6,4 C 29,1 C 6,1 km/h (2 Bft)
26.04.2013 16:35 23,0 C 35 % 1013,7 hPa 0,0 l/m 2,3 km/h (1 Bft) W 270 6,7 C 27,8 C 3,4 km/h (1 Bft)
26.04.2013 16:40 23,8 C 35 % 1013,7 hPa 0,0 l/m 2,6 km/h (1 Bft) W-NW 292 7,4 C 27,8 C 3,1 km/h (1 Bft)
26.04.2013 16:45 23,4 C 35 % 1012,9 hPa 0,0 l/m 3,4 km/h (1 Bft) N-NW 337 7,1 C 28,1 C 7,1 km/h (2 Bft)
26.04.2013 16:50 22,7 C 37 % 1012,9 hPa 0,0 l/m 5,1 km/h (1 Bft) NO 45 7,3 C 26,1 C 5,0 km/h (1 Bft)
26.04.2013 16:55 22,5 C 38 % 1012,9 hPa 0,0 l/m 4,3 km/h (1 Bft) W 270 7,5 C 25,5 C 4,8 km/h (1 Bft)
26.04.2013 17:00 22,3 C 39 % 1012,9 hPa 0,0 l/m 3,7 km/h (1 Bft) W 270 7,7 C 24,9 C 3,9 km/h (1 Bft)
26.04.2013 17:05 22,7 C 39 % 1012,3 hPa 0,0 l/m 4,0 km/h (1 Bft) W-NW 292 8,0 C 25,0 C 6,9 km/h (2 Bft)
26.04.2013 17:10 22,5 C 39 % 1012,3 hPa 0,0 l/m 4,2 km/h (1 Bft) NW 315 7,8 C 24,8 C 3,1 km/h (1 Bft)
26.04.2013 17:15 22,1 C 39 % 1012,3 hPa 0,0 l/m 4,2 km/h (1 Bft) W-NW 292 7,5 C 24,3 C 6,9 km/h (2 Bft)
26.04.2013 17:20 21,9 C 42 % 1012,3 hPa 0,0 l/m 3,9 km/h (1 Bft) W-NW 292 8,4 C 23,7 C 9,2 km/h (2 Bft)
26.04.2013 17:25 21,9 C 42 % 1011,5 hPa 0,0 l/m 3,9 km/h (1 Bft) N 360 8,4 C 23,5 C 4,7 km/h (1 Bft)
26.04.2013 17:30 22,0 C 42 % 1011,5 hPa 0,0 l/m 3,4 km/h (1 Bft) W 270 8,5 C 23,5 C 6,9 km/h (2 Bft)
26.04.2013 17:35 22,1 C 42 % 1011,5 hPa 0,0 l/m 2,9 km/h (1 Bft) W-NW 292 8,6 C 23,5 C 4,8 km/h (1 Bft)
26.04.2013 17:40 22,0 C 42 % 1011,5 hPa 0,0 l/m 2,1 km/h (1 Bft) W-SW 247 8,5 C 23,7 C 2,3 km/h (1 Bft)
26.04.2013 17:45 22,0 C 42 % 1011,8 hPa 0,0 l/m 1,9 km/h (1 Bft) W-NW 292 8,5 C 23,9 C 3,4 km/h (1 Bft)
26.04.2013 17:50 22,1 C 43 % 1011,8 hPa 0,0 l/m 2,3 km/h (1 Bft) W-SW 247 8,9 C 24,2 C 2,4 km/h (1 Bft)
26.04.2013 17:55 22,0 C 43 % 1011,8 hPa 0,0 l/m 2,3 km/h (1 Bft) SW 225 8,8 C 24,2 C 4,0 km/h (1 Bft)
26.04.2013 18:00 21,6 C 43 % 1011,8 hPa 0,0 l/m 2,4 km/h (1 Bft) W 270 8,5 C 23,6 C 1,6 km/h (1 Bft)
26.04.2013 18:05 21,4 C 44 % 1011,5 hPa 0,0 l/m 1,8 km/h (1 Bft) W-SW 247 8,6 C 23,2 C 0,0 km/h (0 Bft)
26.04.2013 18:10 21,3 C 44 % 1011,5 hPa 0,0 l/m 1,4 km/h (1 Bft) W-SW 247 8,5 C 22,8 C 2,9 km/h (1 Bft)
26.04.2013 18:15 21,4 C 46 % 1011,5 hPa 0,0 l/m 1,9 km/h (1 Bft) W-SW 247 9,3 C 22,8 C 4,8 km/h (1 Bft)
26.04.2013 18:20 21,5 C 45 % 1011,5 hPa 0,0 l/m 2,7 km/h (1 Bft) W-SW 247 9,1 C 23,0 C 3,2 km/h (1 Bft)
26.04.2013 18:25 21,4 C 45 % 1011,1 hPa 0,0 l/m 2,9 km/h (1 Bft) W-SW 247 9,0 C 22,9 C 3,5 km/h (1 Bft)
26.04.2013 18:30 21,1 C 46 % 1011,1 hPa 0,0 l/m 2,3 km/h (1 Bft) S-SW 202 9,0 C 22,6 C 1,8 km/h (1 Bft)
26.04.2013 18:35 21,0 C 47 % 1011,1 hPa 0,0 l/m 2,6 km/h (1 Bft) S-SW 202 9,3 C 22,3 C 5,5 km/h (1 Bft)
26.04.2013 18:40 20,4 C 49 % 1011,1 hPa 0,0 l/m 2,7 km/h (1 Bft) S 180 9,3 C 21,7 C 2,3 km/h (1 Bft)
26.04.2013 18:45 20,2 C 49 % 1011,1 hPa 0,0 l/m 2,6 km/h (1 Bft) S-SO 157 9,1 C 21,4 C 2,4 km/h (1 Bft)
26.04.2013 18:50 19,8 C 50 % 1011,1 hPa 0,0 l/m 2,4 km/h (1 Bft) S-SO 157 9,1 C 21,0 C 3,7 km/h (1 Bft)
26.04.2013 18:55 19,6 C 51 % 1011,1 hPa 0,0 l/m 3,2 km/h (1 Bft) S-SO 157 9,2 C 20,7 C 5,8 km/h (2 Bft)
26.04.2013 19:00 19,1 C 53 % 1011,1 hPa 0,0 l/m 4,0 km/h (1 Bft) S-SW 202 9,3 C 20,3 C 5,6 km/h (1 Bft)
26.04.2013 19:05 19,0 C 54 % 1010,9 hPa 0,0 l/m 4,7 km/h (1 Bft) S-SO 157 9,5 C 20,1 C 8,5 km/h (2 Bft)
26.04.2013 19:10 18,8 C 55 % 1010,9 hPa 0,0 l/m 5,5 km/h (1 Bft) S-SO 157 9,6 C 19,8 C 9,3 km/h (2 Bft)
26.04.2013 19:15 18,6 C 55 % 1010,9 hPa 0,0 l/m 5,6 km/h (1 Bft) S 180 9,4 C 19,5 C 7,7 km/h (2 Bft)
26.04.2013 19:20 18,1 C 55 % 1010,9 hPa 0,0 l/m 4,7 km/h (1 Bft) S-SO 157 8,9 C 19,2 C 3,4 km/h (1 Bft)
26.04.2013 19:25 18,0 C 55 % 1010,3 hPa 0,0 l/m 4,2 km/h (1 Bft) S-SO 157 8,8 C 19,0 C 3,1 km/h (1 Bft)
26.04.2013 19:30 18,0 C 56 % 1010,3 hPa 0,0 l/m 2,9 km/h (1 Bft) S 180 9,1 C 18,6 C 2,7 km/h (1 Bft)
26.04.2013 19:35 17,8 C 56 % 1010,3 hPa 0,0 l/m 2,3 km/h (1 Bft) O-SO 112 8,9 C 18,5 C 2,9 km/h (1 Bft)
26.04.2013 19:40 17,7 C 57 % 1010,3 hPa 0,0 l/m 2,3 km/h (1 Bft) O 90 9,1 C 18,3 C 2,9 km/h (1 Bft)
26.04.2013 19:45 17,7 C 57 % 1010,4 hPa 0,0 l/m 2,6 km/h (1 Bft) S 180 9,1 C 18,3 C 2,9 km/h (1 Bft)
26.04.2013 19:50 17,5 C 58 % 1010,4 hPa 0,0 l/m 2,6 km/h (1 Bft) S-SO 157 9,1 C 18,8 C 2,9 km/h (1 Bft)
26.04.2013 19:55 17,4 C 59 % 1010,4 hPa 0,0 l/m 3,2 km/h (1 Bft) S 180 9,3 C 18,8 C 7,1 km/h (2 Bft)
26.04.2013 20:00 17,2 C 59 % 1010,4 hPa 0,0 l/m 3,4 km/h (1 Bft) SO 135 9,1 C 18,7 C 0,0 km/h (0 Bft)
26.04.2013 20:05 16,9 C 60 % 1010,2 hPa 0,0 l/m 2,7 km/h (1 Bft) O-NO 67 9,1 C 18,3 C 2,6 km/h (1 Bft)
26.04.2013 20:10 16,5 C 61 % 1010,2 hPa 0,0 l/m 1,6 km/h (1 Bft) O-SO 112 9,0 C 17,6 C 3,4 km/h (1 Bft)
26.04.2013 20:15 16,2 C 61 % 1010,2 hPa 0,0 l/m 1,6 km/h (1 Bft) S-SO 157 8,7 C 17,1 C 0,0 km/h (0 Bft)
26.04.2013 20:20 16,1 C 63 % 1010,2 hPa 0,0 l/m 1,6 km/h (1 Bft) O 90 9,1 C 16,4 C 2,6 km/h (1 Bft)
26.04.2013 20:25 15,9 C 63 % 1009,8 hPa 0,0 l/m 1,8 km/h (1 Bft) O 90 8,9 C 16,0 C 3,1 km/h (1 Bft)
26.04.2013 20:30 15,8 C 65 % 1009,8 hPa 0,0 l/m 3,2 km/h (1 Bft) O 90 9,2 C 15,5 C 4,8 km/h (1 Bft)
26.04.2013 20:35 15,8 C 65 % 1009,8 hPa 0,0 l/m 3,7 km/h (1 Bft) O 90 9,2 C 15,4 C 4,8 km/h (1 Bft)
26.04.2013 20:40 15,5 C 65 % 1009,8 hPa 0,0 l/m 4,0 km/h (1 Bft) O 90 8,9 C 15,2 C 3,7 km/h (1 Bft)
26.04.2013 20:45 15,2 C 66 % 1009,7 hPa 0,0 l/m 3,9 km/h (1 Bft) O 90 8,9 C 15,1 C 4,0 km/h (1 Bft)
26.04.2013 20:50 15,3 C 65 % 1009,7 hPa 0,0 l/m 3,7 km/h (1 Bft) O 90 8,8 C 15,0 C 5,6 km/h (1 Bft)
26.04.2013 20:55 15,2 C 66 % 1009,7 hPa 0,0 l/m 3,9 km/h (1 Bft) O 90 8,9 C 15,0 C 4,5 km/h (1 Bft)
26.04.2013 21:00 14,6 C 67 % 1009,7 hPa 0,0 l/m 3,9 km/h (1 Bft) O 90 8,5 C 14,7 C 2,4 km/h (1 Bft)
26.04.2013 21:05 13,7 C 68 % 1009,9 hPa 0,0 l/m 3,2 km/h (1 Bft) N-NO 22 7,9 C 14,3 C 6,3 km/h (2 Bft)
26.04.2013 21:10 14,0 C 71 % 1009,9 hPa 0,0 l/m 3,9 km/h (1 Bft) NO 45 8,8 C 13,8 C 4,8 km/h (1 Bft)
26.04.2013 21:15 14,1 C 71 % 1009,9 hPa 0,0 l/m 4,7 km/h (1 Bft) O-NO 67 8,9 C 13,9 C 4,3 km/h (1 Bft)
26.04.2013 21:20 14,0 C 71 % 1009,9 hPa 0,0 l/m 4,0 km/h (1 Bft) NO 45 8,8 C 13,7 C 5,3 km/h (1 Bft)
26.04.2013 21:25 14,3 C 70 % 1009,9 hPa 0,0 l/m 3,7 km/h (1 Bft) NO 45 8,9 C 13,7 C 3,4 km/h (1 Bft)
26.04.2013 21:30 14,4 C 69 % 1009,9 hPa 0,0 l/m 3,4 km/h (1 Bft) O-SO 112 8,8 C 13,9 C 3,5 km/h (1 Bft)
26.04.2013 21:35 14,1 C 68 % 1009,9 hPa 0,0 l/m 2,6 km/h (1 Bft) S-SW 202 8,3 C 13,9 C 0,0 km/h (0 Bft)
26.04.2013 21:40 14,2 C 69 % 1009,9 hPa 0,0 l/m 1,8 km/h (1 Bft) O-NO 67 8,6 C 13,6 C 4,0 km/h (1 Bft)
26.04.2013 21:45 14,3 C 69 % 1010,2 hPa 0,0 l/m 2,3 km/h (1 Bft) S-SO 157 8,7 C 13,7 C 4,5 km/h (1 Bft)
26.04.2013 21:50 14,2 C 70 % 1010,2 hPa 0,0 l/m 3,7 km/h (1 Bft) NO 45 8,8 C 13,9 C 6,6 km/h (2 Bft)
26.04.2013 21:55 14,1 C 69 % 1010,2 hPa 0,0 l/m 3,2 km/h (1 Bft) SO 135 8,5 C 14,0 C 3,9 km/h (1 Bft)
26.04.2013 22:00 14,3 C 69 % 1010,2 hPa 0,0 l/m 3,4 km/h (1 Bft) O-SO 112 8,7 C 14,1 C 14,0 km/h (3 Bft)
26.04.2013 22:05 14,4 C 67 % 1010,2 hPa 0,0 l/m 4,7 km/h (1 Bft) S 180 8,4 C 14,4 C 5,8 km/h (2 Bft)
26.04.2013 22:10 13,9 C 67 % 1010,2 hPa 0,0 l/m 5,1 km/h (1 Bft) S 180 7,9 C 14,5 C 15,8 km/h (3 Bft)
26.04.2013 22:15 13,6 C 68 % 1010,2 hPa 0,0 l/m 4,7 km/h (1 Bft) S-SO 157 7,8 C 14,4 C 6,6 km/h (2 Bft)
26.04.2013 22:20 13,9 C 68 % 1010,2 hPa 0,0 l/m 5,6 km/h (1 Bft) S 180 8,1 C 14,4 C 9,8 km/h (2 Bft)
26.04.2013 22:25 13,9 C 68 % 1010,8 hPa 0,0 l/m 6,8 km/h (2 Bft) S-SO 157 8,1 C 14,3 C 13,8 km/h (3 Bft)
26.04.2013 22:30 13,9 C 68 % 1010,8 hPa 0,0 l/m 7,2 km/h (2 Bft) S 180 8,1 C 13,9 C 8,2 km/h (2 Bft)
26.04.2013 22:35 13,8 C 68 % 1010,8 hPa 0,0 l/m 7,4 km/h (2 Bft) SO 135 8,0 C 13,8 C 8,9 km/h (2 Bft)
26.04.2013 22:40 13,6 C 69 % 1010,8 hPa 0,0 l/m 7,2 km/h (2 Bft) S-SO 157 8,0 C 13,8 C 5,3 km/h (1 Bft)
26.04.2013 22:45 13,6 C 69 % 1010,2 hPa 0,0 l/m 7,1 km/h (2 Bft) S 180 8,0 C 13,9 C 6,6 km/h (2 Bft)
26.04.2013 22:50 13,6 C 70 % 1010,2 hPa 0,0 l/m 5,3 km/h (1 Bft) SO 135 8,2 C 14,2 C 16,1 km/h (3 Bft)
26.04.2013 22:55 13,7 C 71 % 1010,2 hPa 0,0 l/m 4,5 km/h (1 Bft) S 180 8,5 C 14,2 C 5,5 km/h (1 Bft)
26.04.2013 23:00 13,6 C 71 % 1010,2 hPa 0,0 l/m 4,8 km/h (1 Bft) S-SW 202 8,4 C 14,2 C 5,0 km/h (1 Bft)
26.04.2013 23:05 13,4 C 70 % 1010,2 hPa 0,0 l/m 3,9 km/h (1 Bft) SO 135 8,0 C 14,2 C 5,3 km/h (1 Bft)
26.04.2013 23:10 13,8 C 73 % 1010,2 hPa 0,0 l/m 4,0 km/h (1 Bft) S 180 9,0 C 14,2 C 5,5 km/h (1 Bft)
26.04.2013 23:15 13,6 C 73 % 1010,2 hPa 0,0 l/m 5,0 km/h (1 Bft) S 180 8,9 C 14,1 C 5,0 km/h (1 Bft)
26.04.2013 23:20 13,4 C 73 % 1010,2 hPa 0,0 l/m 4,5 km/h (1 Bft) S-SO 157 8,7 C 13,9 C 2,9 km/h (1 Bft)
26.04.2013 23:25 13,4 C 74 % 1010,2 hPa 0,0 l/m 4,0 km/h (1 Bft) S 180 8,9 C 13,9 C 6,3 km/h (2 Bft)
26.04.2013 23:30 13,1 C 74 % 1010,2 hPa 0,0 l/m 4,0 km/h (1 Bft) S 180 8,6 C 13,7 C 6,6 km/h (2 Bft)
26.04.2013 23:35 13,1 C 75 % 1010,2 hPa 0,0 l/m 4,7 km/h (1 Bft) S 180 8,8 C 13,6 C 4,2 km/h (1 Bft)
26.04.2013 23:40 12,6 C 75 % 1010,2 hPa 0,0 l/m 4,2 km/h (1 Bft) SO 135 8,3 C 13,2 C 2,4 km/h (1 Bft)
26.04.2013 23:45 12,5 C 76 % 1009,9 hPa 0,0 l/m 2,4 km/h (1 Bft) NO 45 8,4 C 12,9 C 1,9 km/h (1 Bft)
26.04.2013 23:50 12,2 C 76 % 1009,9 hPa 0,0 l/m 0,5 km/h (0 Bft) N 360 8,1 C 12,5 C 0,0 km/h (0 Bft)
26.04.2013 23:55 12,1 C 76 % 1009,9 hPa 0,0 l/m 0,3 km/h (0 Bft) W-NW 292 8,0 C 12,3 C 1,9 km/h (1 Bft)
_ Min-Zeit 04:45 12:30 21:00 - 09:50 - - 05:15 04:50 23:50
Minimum _ 5,7 C 26 % 1009,7 hPa - 0,0 km/h (0 Bft) - - 2,5 C 5,5 C 0,0 km/h (0 Bft)
_ Max-Zeit 11:35 02:15 00:00 23:55 22:35 - - 10:10 16:30 22:50
Maximum _ 26,1 C 83 % 1022,6 hPa 0,0 l/m 7,4 km/h
SO (2 Bft)
- - 10,1 C 29,1 C 16,1 km/h
SO (3 Bft)
Durchschnitt _ 15,7 C 57 % 1016,4 hPa #0,0 l/m 2,1 km/h (1 Bft) S - 6,2 C 16,6 C 2,9 km/h (1 Bft)